Wind_Speed
9 9 9 9 8 9 9 9 9 9 9 9 9 9 8 9 9 9 9 9 9 9 9 9 9 9 8 8 8 7 6 6 6 5 5 6 6 6 6 5 5 5 6
10 10 10 10 10 9 10 9 9 9 9 10 10 10 10 10 10 10 10 10 10 10 10 10 10 10 9 9 8 8 7 7 7 6 6 7 8 7 7 6 6 7 7
11 11 11 10 10 10 9 10 11 11 10 10 11 11 11 11 10 11 12 12 12 12 11 11 11 10 10 9 9 9 8 8 8 8 8 8 8 8 8 7 7 7 7
11 12 11 11 11 10 10 11 11 11 11 11 12 12 12 12 12 12 12 13 13 13 12 12 11 11 11 10 10 10 9 9 9 8 8 8 8 9 8 8 8 8 8
11 11 12 11 11 11 11 11 11 12 13 13 13 13 13 13 13 13 13 13 13 13 13 13 12 11 11 11 11 11 10 10 9 9 9 9 9 9 9 9 8 8 9
11 12 12 11 11 11 12 12 12 12 13 14 14 14 14 14 14 14 13 12 12 12 13 13 13 12 12 12 12 12 12 11 10 10 10 10 10 10 10 10 9 9 10
12 12 12 12 12 13 13 13 12 13 14 14 14 14 15 15 15 14 14 13 13 13 13 13 13 13 13 12 13 13 13 12 12 12 12 12 11 11 11 11 10 10 10
13 13 13 13 13 13 13 13 14 14 14 14 14 15 15 14 15 14 14 14 14 14 14 14 14 14 14 14 14 14 14 13 12 12 13 13 12 12 12 12 11 11 11
14 13 14 14 14 14 14 13 14 14 14 14 15 15 15 15 15 15 15 14 14 14 15 15 15 15 15 15 15 15 14 14 13 13 13 13 14 13 13 13 12 12 13
15 14 14 15 14 13 13 14 14 14 14 14 15 14 14 14 14 14 15 15 15 15 15 16 16 16 16 16 16 15 15 15 14 14 14 14 14 14 13 13 13 13 13
16 14 14 15 14 14 13 14 14 14 14 14 14 13 13 13 14 14 15 16 16 16 16 16 16 16 16 16 16 15 16 16 16 15 15 15 15 15 15 14 14 14 14
16 15 15 14 14 13 13 14 14 13 14 14 13 12 13 13 13 14 15 15 16 16 16 16 16 16 15 16 15 15 16 17 17 16 16 16 16 16 16 15 16 16 15
15 14 14 14 14 13 13 13 13 13 14 14 13 13 13 13 13 14 14 14 14 14 14 15 15 15 15 16 16 16 17 17 18 17 17 16 16 17 17 17 17 17 17
15 14 14 14 13 12 13 13 12 12 12 12 13 12 12 13 13 13 13 13 13 14 14 14 14 14 15 16 16 17 17 17 18 18 17 17 17 18 19 18 18 18 18
14 13 13 13 12 11 12 12 12 12 11 11 12 12 11 12 12 13 13 13 14 14 14 13 14 15 16 16 16 17 18 18 18 19 19 18 18 18 19 19 19 19 18
13 12 11 11 11 10 10 10 11 12 12 11 11 12 12 12 11 12 12 13 14 13 13 13 14 15 15 16 16 16 17 18 18 20 19 19 19 19 19 20 19 19 19
12 12 11 10 10 10 10 10 10 11 11 11 11 12 12 11 10 10 11 12 13 13 14 14 14 16 17 17 17 16 16 17 18 19 18 19 20 19 19 20 20 20 20
11 11 11 11 11 11 10 9 10 10 10 11 11 11 11 12 11 11 11 12 13 13 14 14 15 15 16 16 16 17 17 17 17 18 18 18 18 18 19 20 21 22 22
12 12 12 11 12 11 10 9 9 10 10 10 11 11 12 13 13 13 13 12 12 13 13 13 14 14 15 16 17 17 17 17 17 17 18 19 19 19 20 21 22 23 23
12 12 12 11 11 11 10 10 9 9 10 10 10 12 13 13 13 13 13 12 13 13 13 13 13 14 14 15 16 17 17 16 17 18 18 19 19 20 21 22 22 22 23
12 12 12 11 10 10 10 10 10 10 10 10 10 11 12 12 13 13 13 13 13 13 14 14 14 15 14 15 15 16 17 17 18 18 18 18 19 20 21 21 22 22 23
11 11 11 10 10 9 10 10 10 10 10 11 11 11 12 12 12 12 12 12 13 14 14 14 14 14 15 16 15 16 17 18 18 18 19 19 20 20 21 21 21 22 22
11 10 10 10 10 10 10 10 10 10 10 11 11 11 11 11 11 12 12 12 12 14 14 13 14 14 14 14 15 16 17 18 18 19 18 19 20 20 20 20 21 22 23
12 10 9 9 9 10 10 10 9 9 10 11 12 12 11 11 10 11 12 12 12 12 13 13 13 14 14 13 14 15 16 16 17 18 19 19 20 21 21 21 21 22 23
11 11 10 9 9 10 10 9 9 10 10 11 12 12 12 11 10 10 11 11 11 11 12 13 13 14 14 14 14 14 15 16 17 18 18 19 20 20 21 21 22 22 22
11 11 10 10 10 10 10 10 10 10 11 11 11 12 12 11 11 10 11 11 11 12 13 13 14 14 14 14 15 15 16 17 18 18 19 19 20 20 21 22 22 23 23
Wind_Direction
311 311 310 307 304 299 294 290 290 290 289 286 281 277 276 277 277 278 274 272 270 267 267 266 263 261 258 257 259 263 256 246 246 246 238 239 240 239 237 235 232 230 218
308 306 303 301 300 297 291 288 287 288 287 284 280 278 276 276 275 278 274 272 269 266 265 265 263 260 257 257 258 258 254 250 253 252 244 242 242 241 238 243 240 236 230
309 306 305 300 296 295 291 287 289 286 283 282 279 278 276 276 275 275 273 271 268 266 265 265 261 254 256 257 259 259 257 254 254 255 251 246 239 242 241 243 238 237 236
309 307 306 301 296 292 289 284 284 283 280 279 277 275 274 274 274 273 271 270 268 264 262 262 261 256 256 255 253 256 260 260 259 261 256 250 244 245 246 242 242 238 238
314 311 309 302 295 289 285 281 279 279 280 279 275 273 273 272 271 270 269 271 267 263 260 260 260 260 261 257 256 258 260 261 261 263 259 254 246 246 247 247 246 242 240
316 312 307 301 296 289 283 282 278 277 279 280 277 272 272 272 271 268 265 267 266 262 259 259 259 260 262 260 258 259 260 261 262 263 260 254 248 246 246 247 245 244 242
313 311 306 299 295 290 284 281 280 281 281 281 279 274 273 273 271 265 263 264 263 263 262 260 260 260 259 260 259 259 260 263 265 266 260 255 254 252 249 245 245 244 240
307 306 302 296 294 290 285 281 280 283 285 281 279 277 272 271 268 264 263 262 263 263 265 263 259 259 258 258 259 261 261 263 263 261 258 257 257 257 255 250 247 245 242
303 303 300 295 292 288 286 282 282 283 283 281 278 275 271 268 265 265 261 261 262 262 264 264 262 260 258 259 259 260 260 259 259 260 257 255 256 259 258 253 246 244 241
301 300 297 295 292 289 285 281 281 284 283 281 279 276 271 266 263 265 262 262 262 261 262 264 265 263 261 259 258 258 260 259 257 260 259 256 257 258 256 251 247 243 244
300 299 296 292 291 286 284 282 283 284 286 282 280 277 270 266 263 263 264 264 263 262 262 264 266 265 260 258 256 258 258 259 255 258 259 257 256 254 251 249 248 247 246
301 300 297 296 296 288 283 283 285 287 286 287 283 275 269 264 263 265 267 265 264 263 264 265 265 263 262 258 257 257 257 257 255 257 257 256 255 254 250 247 249 249 248
303 301 298 296 294 289 284 283 283 286 286 287 286 277 271 266 265 268 269 263 262 266 265 264 264 263 262 259 259 260 259 258 258 258 256 255 254 253 252 251 253 251 250
304 300 295 296 293 287 282 281 283 286 288 286 284 278 271 270 269 270 271 268 266 266 266 266 266 266 261 261 262 262 261 258 256 256 257 255 253 254 251 251 252 253 255
306 301 297 294 294 289 284 285 283 287 287 285 280 273 271 270 271 274 274 271 270 266 266 266 266 266 264 263 264 263 264 260 257 258 257 254 255 255 252 251 252 255 255
313 307 304 295 295 291 288 290 289 285 285 285 280 273 272 271 274 276 274 275 273 271 269 269 271 270 266 267 266 265 265 263 262 259 258 256 255 255 255 253 252 253 252
316 313 308 303 296 294 290 292 292 292 289 285 280 279 276 272 274 277 277 276 276 274 272 273 275 270 266 266 266 266 267 263 262 260 260 259 253 254 254 254 252 252 250
315 313 311 306 302 298 294 290 294 295 291 287 285 283 280 278 273 277 276 276 276 275 274 275 276 271 269 268 267 267 268 267 267 265 263 260 257 257 256 256 254 252 250
315 313 311 310 308 302 294 292 297 295 291 290 291 287 284 282 277 276 276 277 279 281 279 274 274 272 271 269 268 268 269 267 266 265 264 263 261 258 256 257 255 252 250
312 312 310 310 309 304 297 294 294 294 293 293 292 291 287 284 280 278 279 279 279 281 280 276 274 273 274 272 270 268 265 265 266 269 268 265 264 262 258 258 257 253 252
307 309 305 303 305 301 296 296 294 294 295 296 294 294 292 288 285 285 283 281 280 282 281 278 279 276 276 275 274 270 268 268 270 271 269 265 265 264 261 261 260 255 253
302 303 304 299 297 300 297 294 295 296 297 299 296 292 290 289 288 287 286 287 286 285 284 280 282 280 280 277 273 272 273 272 274 273 270 266 265 265 261 260 259 259 257
297 298 301 301 297 297 296 295 294 295 297 298 298 291 289 292 290 288 288 292 285 285 286 286 283 285 286 281 275 275 275 272 272 273 272 269 268 268 266 262 260 261 259
289 289 294 295 293 295 293 289 291 294 295 294 292 293 291 294 293 291 291 290 288 289 292 293 290 289 292 291 285 280 276 276 275 273 272 271 268 267 266 263 263 263 262
286 287 292 293 291 291 291 288 288 293 294 292 292 294 292 291 292 293 292 293 291 293 294 294 295 293 293 293 291 285 281 279 277 274 271 271 271 269 268 266 263 264 263
287 288 287 289 292 292 291 288 288 292 295 294 294 295 295 291 290 294 297 294 292 292 294 295 296 297 296 295 292 287 283 281 280 276 273 272 271 270 268 268 267 265 262
Height
5890 5889 5888 5887 5887 5887 5886 5886 5886 5886 5885 5885 5885 5884 5884 5884 5884 5883 5883 5882 5882 5882 5882 5882 5882 5881 5881 5882 5882 5882 5881 5881 5882 5882 5882 5882 5882 5882 5882 5882 5882 5882 5883
5888 5888 5887 5886 5886 5885 5885 5885 5884 5884 5884 5884 5883 5883 5883 5883 5882 5882 5882 5881 5881 5881 5881 5881 5880 5880 5880 5880 5880 5880 5880 5880 5880 5881 5881 5881 5881 5881 5881 5881 5881 5881 5882
5887 5886 5886 5885 5884 5884 5883 5883 5883 5882 5882 5882 5882 5881 5881 5881 5881 5880 5880 5879 5879 5879 5879 5879 5879 5879 5879 5879 5879 5879 5879 5879 5879 5879 5880 5880 5880 5880 5880 5880 5880 5881 5881
5886 5885 5884 5883 5883 5882 5882 5881 5880 5880 5880 5880 5880 5879 5879 5879 5879 5878 5878 5878 5877 5877 5877 5877 5877 5877 5877 5877 5877 5877 5877 5877 5877 5878 5878 5878 5878 5878 5878 5879 5879 5880 5880
5884 5883 5882 5881 5881 5880 5880 5879 5878 5878 5878 5878 5877 5877 5877 5876 5876 5876 5876 5876 5875 5875 5875 5875 5875 5875 5875 5875 5875 5875 5875 5876 5876 5876 5876 5876 5877 5877 5877 5877 5878 5878 5879
5882 5881 5880 5879 5878 5878 5877 5877 5876 5876 5875 5875 5874 5874 5874 5874 5874 5874 5873 5873 5873 5873 5873 5873 5873 5873 5873 5873 5873 5873 5873 5874 5874 5874 5874 5874 5875 5875 5876 5876 5876 5877 5878
5880 5879 5878 5877 5876 5875 5874 5874 5874 5873 5872 5872 5871 5871 5871 5871 5871 5871 5871 5871 5871 5871 5871 5871 5871 5871 5871 5871 5871 5871 5871 5872 5872 5872 5872 5872 5873 5873 5874 5874 5875 5875 5876
5878 5878 5876 5875 5874 5873 5872 5871 5871 5870 5869 5869 5868 5868 5868 5868 5867 5867 5867 5868 5868 5868 5868 5868 5868 5868 5868 5869 5869 5869 5869 5869 5869 5870 5870 5870 5871 5871 5871 5872 5872 5873 5874
5876 5874 5874 5873 5872 5870 5869 5868 5868 5867 5866 5865 5865 5864 5864 5864 5864 5864 5864 5864 5865 5865 5865 5865 5865 5865 5866 5866 5866 5866 5866 5867 5867 5867 5868 5868 5868 5869 5869 5869 5870 5870 5871
5873 5871 5870 5869 5868 5867 5866 5866 5865 5864 5863 5862 5861 5861 5860 5860 5860 5860 5860 5861 5861 5862 5862 5862 5862 5862 5862 5862 5863 5863 5863 5864 5864 5864 5865 5865 5865 5866 5866 5867 5867 5868 5869
5869 5868 5867 5866 5865 5864 5863 5863 5862 5861 5860 5859 5858 5857 5857 5857 5857 5857 5857 5857 5858 5858 5858 5858 5858 5858 5859 5859 5859 5860 5860 5860 5861 5861 5862 5862 5862 5862 5863 5864 5864 5865 5865
5866 5865 5864 5862 5861 5860 5860 5859 5858 5857 5857 5856 5855 5854 5853 5854 5854 5854 5854 5854 5854 5854 5855 5854 5854 5854 5855 5855 5856 5856 5856 5856 5857 5858 5858 5858 5859 5859 5860 5860 5861 5861 5862
5862 5861 5859 5858 5858 5857 5856 5855 5855 5854 5853 5852 5852 5851 5850 5851 5851 5851 5851 5850 5851 5851 5851 5851 5850 5850 5851 5851 5852 5852 5852 5853 5853 5854 5854 5854 5855 5855 5856 5857 5857 5857 5858
5858 5858 5856 5855 5854 5853 5853 5852 5851 5850 5850 5849 5848 5848 5848 5848 5848 5848 5847 5847 5847 5847 5847 5847 5847 5847 5847 5848 5848 5848 5848 5848 5849 5849 5850 5850 5851 5852 5852 5853 5853 5854 5854
5855 5854 5853 5852 5851 5850 5849 5849 5848 5847 5847 5846 5846 5845 5845 5845 5844 5845 5844 5844 5844 5844 5844 5843 5843 5843 5843 5844 5844 5844 5844 5844 5844 5845 5846 5846 5847 5848 5848 5849 5849 5849 5850
5852 5851 5850 5848 5847 5847 5846 5846 5845 5845 5844 5843 5843 5842 5842 5842 5842 5841 5841 5841 5841 5840 5840 5840 5839 5839 5839 5839 5840 5840 5839 5840 5840 5840 5840 5841 5842 5843 5843 5844 5844 5845 5845
5850 5849 5848 5846 5845 5845 5844 5843 5842 5842 5841 5840 5840 5839 5839 5839 5838 5838 5838 5838 5837 5837 5836 5836 5836 5835 5835 5835 5835 5835 5835 5835 5835 5835 5835 5836 5837 5837 5838 5838 5839 5839 5840
5848 5847 5846 5845 5844 5843 5841 5841 5840 5839 5838 5837 5837 5836 5836 5836 5835 5835 5835 5835 5834 5833 5833 5832 5831 5831 5830 5830 5830 5830 5830 5830 5831 5831 5831 5831 5832 5832 5833 5833 5833 5834 5834
5846 5844 5843 5842 5841 5840 5839 5838 5837 5836 5836 5835 5834 5833 5833 5832 5832 5832 5831 5831 5831 5830 5829 5828 5827 5826 5826 5826 5825 5825 5825 5826 5826 5826 5826 5827 5827 5827 5827 5827 5828 5828 5828
5843 5841 5840 5839 5838 5837 5836 5836 5835 5834 5833 5832 5831 5830 5829 5829 5829 5828 5828 5827 5827 5826 5825 5824 5823 5822 5822 5821 5821 5820 5821 5821 5821 5821 5821 5821 5822 5822 5822 5822 5822 5822 5822
5840 5839 5837 5836 5835 5835 5834 5834 5833 5832 5831 5829 5828 5827 5826 5825 5825 5825 5824 5824 5823 5823 5821 5820 5819 5818 5817 5817 5816 5816 5816 5816 5816 5816 5816 5816 5816 5816 5816 5816 5816 5816 5817
5837 5837 5835 5834 5833 5832 5832 5831 5830 5829 5828 5827 5826 5825 5823 5822 5821 5821 5820 5820 5819 5819 5817 5816 5815 5814 5813 5812 5812 5811 5811 5811 5810 5810 5810 5810 5810 5810 5810 5810 5810 5810 5811
5834 5833 5833 5831 5830 5830 5829 5828 5828 5827 5825 5824 5823 5822 5820 5819 5818 5817 5817 5816 5815 5814 5813 5812 5811 5810 5809 5808 5807 5807 5806 5805 5805 5805 5804 5804 5804 5804 5804 5804 5804 5805 5805
5831 5830 5829 5828 5828 5827 5826 5826 5825 5824 5823 5822 5820 5819 5818 5817 5815 5814 5813 5812 5811 5811 5809 5808 5807 5806 5805 5803 5802 5802 5801 5800 5800 5800 5799 5799 5798 5798 5798 5798 5799 5799 5799
5829 5828 5826 5825 5825 5824 5823 5823 5822 5821 5820 5819 5817 5816 5815 5814 5812 5811 5810 5809 5808 5807 5806 5805 5804 5803 5801 5799 5798 5797 5796 5795 5795 5794 5794 5793 5793 5792 5792 5792 5792 5792 5792
5826 5825 5824 5823 5822 5821 5820 5820 5819 5818 5817 5816 5815 5813 5812 5810 5809 5808 5807 5806 5805 5804 5803 5801 5800 5798 5797 5795 5794 5793 5792 5791 5790 5789 5788 5788 5787 5787 5786 5786 5786 5786 5786